Home   Weather   Charlotte   Past weeks
Flag for USA

Past Weather in Charlotte, North Carolina, USA — Yesterday and Last 2 Weeks

Now
73 °F

Fog.


Feels Like: 70 °F
Forecast: 85 / 72 °F
Wind: 3 mph from West

Location: Charlotte / Douglas International Airport

Current Time: Jun 19, 2019 at 5:01:59 am

Latest Report: Jun 19, 2019 at 3:52 am


Visibility: 5 mi

Pressure: 29.85 "Hg

Humidity: 94%

Dew Point: 71 °F

Location of CharlotteLocation

Past Weather in Charlotte — Graph

°F

Charlotte Temperature Yesterday

Maximum temperature yesterday: 87 °F (at 2:52 pm)
Minimum temperature yesterday: 73 °F (at 2:52 am)
Average temperature yesterday: 80 °F

High & Low Weather Summary for the Past Weeks

 TemperatureHumidityPressure
High91 °F (Jun 17, 2:52 pm)94% (Jun 19, 2:52 am)30.23 "Hg (Jun 19, 2:52 am)
Low52 °F (Jun 14, 5:52 am)31% (Jun 14, 2:52 pm)29.77 "Hg (Jun 7, 4:52 pm)
Average75 °F70%29.98 "Hg
* Reported Jun 4 3:52 am — Jun 19 3:52 am, Charlotte. Weather by CustomWeather, © 2019

Note: Actual official high and low records may vary slightly from our data, if they occured in-between our weather recording intervals... More about our weather records

Advertising

Charlotte Weather History for the Previous 24 Hours

Scroll right to see more
 ConditionsComfort  
Time TempWeatherWind HumidityBarometerVisibility
3:52 am
Wed, Jun 19
73 °FFog.3 mph94%29.85 "Hg5 mi
2:52 am74 °FLow clouds.No wind94%29.86 "Hg8 mi
1:52 am75 °FMostly cloudy.7 mph90%29.89 "Hg9 mi
1:33 am75 °FLow clouds.7 mph90%29.93 "Hg10 mi
1:18 am75 °FRain. Fog.5 mph90%29.93 "Hg6 mi
1:03 am75 °FThundershowers. Fog.6 mph90%29.94 "Hg4 mi
12:52 am76 °FLight rain. Fog.7 mph88%29.91 "Hg6 mi
12:32 am77 °FLight rain. Overcast.6 mph79%29.94 "Hg10 mi
11:52 pm
Tue, Jun 18
78 °FOvercast.5 mph76%29.90 "Hg10 mi
10:52 pm77 °FOvercast.6 mph77%29.90 "Hg10 mi
9:52 pm80 °FOvercast.No wind64%29.90 "Hg10 mi
8:52 pm81 °FOvercast.No wind67%29.90 "Hg10 mi
7:52 pm82 °FMore clouds than sun.No wind67%29.92 "Hg10 mi
6:52 pm84 °FPartly sunny.6 mph59%29.90 "Hg10 mi
5:52 pm85 °FBroken clouds.8 mph55%29.90 "Hg10 mi
4:52 pm86 °FBroken clouds.9 mph55%29.91 "Hg10 mi
3:52 pm86 °FBroken clouds.9 mph53%29.93 "Hg10 mi
2:52 pm87 °FBroken clouds.8 mph53%29.94 "Hg10 mi
1:52 pm86 °FBroken clouds.8 mph57%29.96 "Hg10 mi
12:52 pm84 °FBroken clouds.8 mph63%29.99 "Hg10 mi
11:52 am85 °FBroken clouds.10 mph63%30.01 "Hg10 mi
10:52 am83 °FPartly sunny.7 mph68%30.01 "Hg10 mi
10:27 am82 °FBroken clouds.8 mph70%30.03 "Hg10 mi
9:52 am81 °FPartly sunny.7 mph72%30.01 "Hg10 mi
9:44 am82 °FPartly sunny.8 mph70%30.04 "Hg10 mi
8:52 am80 °FBroken clouds.9 mph71%30.02 "Hg10 mi
8:15 am78 °FBroken clouds.7 mph76%30.05 "Hg10 mi
7:52 am77 °FPartly sunny.7 mph77%30.02 "Hg10 mi
6:52 am74 °FPartly sunny.5 mph85%30.02 "Hg10 mi
5:52 am74 °FOvercast.6 mph82%30.01 "Hg10 mi
Weather by CustomWeather, © 2019

See weather overview